| time (UTC) | temp C | wind direction | speed KPH | gust KPH | rain 1hr cm | rain 24hr cm | rain mn cm | humidity % | barometer mb |
| 20260502234359 | 15 | 10 | 4.8 | 8.0 | 0.00 | 0.00 | 0.00 | 37 | 1014.9 |
| 20260502233856 | 15 | 292 | 3.2 | 6.4 | 0.00 | 0.00 | 0.00 | 37 | 1015.1 |
| 20260502233352 | 15 | 8 | 3.2 | 8.0 | 0.00 | 0.00 | 0.00 | 36 | 1015.0 |
| 20260502232849 | 15 | 90 | 0.0 | 4.8 | 0.00 | 0.00 | 0.00 | 37 | 1015.1 |
| 20260502232345 | 15 | 90 | 0.0 | 8.0 | 0.00 | 0.00 | 0.00 | 38 | 1014.9 |
| 20260502231842 | 15 | 75 | 3.2 | 6.4 | 0.00 | 0.00 | 0.00 | 40 | 1015.1 |
| 20260502231340 | 15 | 243 | 0.0 | 8.0 | 0.00 | 0.00 | 0.00 | 37 | 1015.2 |
| 20260502230838 | 15 | 350 | 3.2 | 4.8 | 0.00 | 0.00 | 0.00 | 39 | 1015.1 |
| 20260502230336 | 15 | 70 | 4.8 | 9.7 | 0.00 | 0.00 | 0.00 | 39 | 1015.2 |
| 20260502225832 | 15 | 261 | 0.0 | 6.4 | 0.00 | 0.00 | 0.00 | 39 | 1015.0 |
| 20260502225329 | 15 | 0 | 0.0 | 8.0 | 0.00 | 0.00 | 0.00 | 37 | 1015.1 |
| 20260502224826 | 15 | 240 | 0.0 | 6.4 | 0.00 | 0.00 | 0.00 | 40 | 1015.1 |
| 20260502224322 | 14 | 151 | 0.0 | 4.8 | 0.00 | 0.00 | 0.00 | 41 | 1015.3 |
| 20260502223819 | 13 | 252 | 4.8 | 9.7 | 0.00 | 0.00 | 0.00 | 42 | 1015.4 |
| 20260502223317 | 14 | 356 | 0.0 | 6.4 | 0.00 | 0.00 | 0.00 | 41 | 1015.0 |
| 20260502222815 | 15 | 349 | 0.0 | 9.7 | 0.00 | 0.00 | 0.00 | 39 | 1015.6 |
| 20260502222312 | 14 | 4 | 0.0 | 4.8 | 0.00 | 0.00 | 0.00 | 41 | 1015.2 |
| 20260502221808 | 13 | 270 | 0.0 | 3.2 | 0.00 | 0.00 | 0.00 | 44 | 1015.2 |
| 20260502221304 | 13 | 35 | 0.0 | 8.0 | 0.00 | 0.00 | 0.00 | 42 | 1015.4 |
| 20260502220801 | 14 | 192 | 0.0 | 4.8 | 0.00 | 0.00 | 0.00 | 42 | 1015.6 |
| 20260502220257 | 14 | 243 | 1.6 | 8.0 | 0.00 | 0.00 | 0.00 | 42 | 1015.6 |
| 20260502215754 | 15 | 339 | 4.8 | 9.7 | 0.00 | 0.00 | 0.00 | 40 | 1015.6 |
| 20260502215251 | 16 | 358 | 4.8 | 8.0 | 0.00 | 0.00 | 0.00 | 37 | 1015.3 |
| 20260502214748 | 15 | 189 | 3.2 | 8.0 | 0.00 | 0.00 | 0.00 | 38 | 1015.6 |
| 20260502214245 | 15 | 76 | 4.8 | 11.3 | 0.00 | 0.00 | 0.00 | 40 | 1015.6 |
| 20260502213742 | 15 | 0 | 9.7 | 9.7 | 0.00 | 0.00 | 0.00 | 38 | 1015.7 |
| 20260502213239 | 15 | 7 | 1.6 | 9.7 | 0.00 | 0.00 | 0.00 | 41 | 1015.2 |
| 20260502212738 | 14 | 102 | 0.0 | 8.0 | 0.00 | 0.00 | 0.00 | 43 | 1015.6 |
| 20260502212236 | 13 | 214 | 4.8 | 8.0 | 0.00 | 0.00 | 0.00 | 42 | 1015.6 |
| 20260502211732 | 13 | 193 | 8.0 | 9.7 | 0.00 | 0.00 | 0.00 | 42 | 1015.8 |
| 20260502211229 | 13 | 315 | 0.0 | 8.0 | 0.00 | 0.00 | 0.00 | 41 | 1015.9 |
| 20260502210726 | 14 | 310 | 0.0 | 8.0 | 0.00 | 0.00 | 0.00 | 43 | 1015.9 |
| 20260502210223 | 15 | 19 | 3.2 | 6.4 | 0.00 | 0.00 | 0.00 | 41 | 1016.0 |
| 20260502205720 | 14 | 237 | 9.7 | 9.7 | 0.00 | 0.00 | 0.00 | 41 | 1015.9 |
| 20260502205216 | 15 | 252 | 0.0 | 9.7 | 0.00 | 0.00 | 0.00 | 41 | 1015.9 |
| 20260502204714 | 15 | 233 | 3.2 | 4.8 | 0.00 | 0.00 | 0.00 | 43 | 1015.9 |
| 20260502204211 | 13 | 45 | 0.0 | 6.4 | 0.00 | 0.00 | 0.00 | 44 | 1016.0 |
| 20260502203708 | 13 | 38 | 3.2 | 4.8 | 0.00 | 0.00 | 0.00 | 42 | 1016.0 |
| 20260502203206 | 15 | 65 | 0.0 | 4.8 | 0.00 | 0.00 | 0.00 | 44 | 1016.1 |
| 20260502202700 | 13 | 200 | 1.6 | 4.8 | 0.00 | 0.00 | 0.00 | 43 | 1016.2 |
| 20260502202159 | 13 | 189 | 11.3 | 11.3 | 0.00 | 0.00 | 0.00 | 41 | 1016.2 |
| 20260502201656 | 15 | 355 | 3.2 | 8.0 | 0.00 | 0.00 | 0.00 | 42 | 1016.3 |
| 20260502201152 | 14 | 192 | 1.6 | 6.4 | 0.00 | 0.00 | 0.00 | 42 | 1016.2 |
| 20260502200648 | 14 | 315 | 3.2 | 8.0 | 0.00 | 0.00 | 0.00 | 39 | 1016.6 |
| 20260502200144 | 14 | 209 | 3.2 | 6.4 | 0.00 | 0.00 | 0.00 | 41 | 1016.5 |
| 20260502195643 | 14 | 319 | 3.2 | 12.9 | 0.00 | 0.00 | 0.00 | 42 | 1016.7 |
| 20260502195139 | 13 | 301 | 4.8 | 9.7 | 0.00 | 0.00 | 0.00 | 44 | 1016.6 |
| 20260502194636 | 13 | 90 | 3.2 | 8.0 | 0.00 | 0.00 | 0.00 | 46 | 1016.8 |
| 20260502194132 | 13 | 15 | 1.6 | 6.4 | 0.00 | 0.00 | 0.00 | 45 | 1016.9 |
| 20260502193629 | 12 | 220 | 0.0 | 9.7 | 0.00 | 0.00 | 0.00 | 45 | 1016.8 |
| 20260502193126 | 12 | 103 | 1.6 | 6.4 | 0.00 | 0.00 | 0.00 | 45 | 1016.7 |
| 20260502192621 | 12 | 97 | 0.0 | 8.0 | 0.00 | 0.00 | 0.00 | 43 | 1016.9 |
| 20260502192119 | 12 | 244 | 0.0 | 8.0 | 0.00 | 0.00 | 0.00 | 42 | 1017.1 |
| 20260502191616 | 13 | 90 | 0.0 | 4.8 | 0.00 | 0.00 | 0.00 | 43 | 1017.0 |
| 20260502191113 | 13 | 68 | 0.0 | 8.0 | 0.00 | 0.00 | 0.00 | 43 | 1017.0 |
| 20260502190611 | 12 | 225 | 4.8 | 4.8 | 0.00 | 0.00 | 0.00 | 45 | 1017.0 |
| 20260502190108 | 12 | 103 | 1.6 | 3.2 | 0.00 | 0.00 | 0.00 | 46 | 1017.0 |
| 20260502185603 | 12 | 246 | 0.0 | 9.7 | 0.00 | 0.00 | 0.00 | 42 | 1017.3 |
| 20260502185100 | 12 | 90 | 0.0 | 6.4 | 0.00 | 0.00 | 0.00 | 46 | 1017.2 |
| 20260502184556 | 12 | 23 | 0.0 | 4.8 | 0.00 | 0.00 | 0.00 | 45 | 1017.3 |
| 20260502184051 | 13 | 71 | 0.0 | 8.0 | 0.00 | 0.00 | 0.00 | 44 | 1017.3 |
| 20260502183548 | 13 | 90 | 3.2 | 6.4 | 0.00 | 0.00 | 0.00 | 45 | 1017.4 |
| 20260502183044 | 12 | 14 | 4.8 | 8.0 | 0.00 | 0.00 | 0.00 | 46 | 1017.4 |
| 20260502182539 | 12 | 97 | 0.0 | 6.4 | 0.00 | 0.00 | 0.00 | 46 | 1017.6 |
| 20260502182036 | 12 | 74 | 0.0 | 9.7 | 0.00 | 0.00 | 0.00 | 46 | 1017.4 |
| 20260502181534 | 12 | 247 | 4.8 | 8.0 | 0.00 | 0.00 | 0.00 | 45 | 1017.5 |
| 20260502181032 | 12 | 240 | 3.2 | 8.0 | 0.00 | 0.00 | 0.00 | 48 | 1017.7 |
| 20260502180529 | 11 | 23 | 0.0 | 4.8 | 0.00 | 0.00 | 0.00 | 47 | 1017.7 |
| 20260502170448 | 12 | 342 | 3.2 | 4.8 | 0.00 | 0.00 | 0.00 | 46 | 1018.3 |
| 20260502163931 | 12 | 77 | 1.6 | 6.4 | 0.00 | 0.00 | 0.00 | 47 | 1018.3 |
| 20260502163427 | 12 | 340 | 0.0 | 8.0 | 0.00 | 0.00 | 0.00 | 48 | 1018.6 |
| 20260502162925 | 12 | 15 | 0.0 | 6.4 | 0.00 | 0.00 | 0.00 | 46 | 1018.1 |
| 20260502162422 | 11 | 206 | 3.2 | 11.3 | 0.00 | 0.00 | 0.00 | 44 | 1018.3 |
| 20260502161919 | 11 | 90 | 0.0 | 4.8 | 0.00 | 0.00 | 0.00 | 48 | 1018.3 |
| 20260502161415 | 11 | 85 | 3.2 | 6.4 | 0.00 | 0.00 | 0.00 | 47 | 1018.5 |
| 20260502160913 | 12 | 90 | 3.2 | 6.4 | 0.00 | 0.00 | 0.00 | 49 | 1018.6 |
| 20260502160411 | 11 | 83 | 1.6 | 9.7 | 0.00 | 0.00 | 0.00 | 49 | 1018.8 |
| 20260502151850 | 10 | 220 | 4.8 | 6.4 | 0.00 | 0.00 | 0.00 | 45 | 1018.8 |
| 20260502151345 | 10 | 188 | 0.0 | 4.8 | 0.00 | 0.00 | 0.00 | 47 | 1018.8 |
| 20260502150843 | 11 | 90 | 8.0 | 8.0 | 0.00 | 0.00 | 0.00 | 52 | 1018.7 |
| 20260502150340 | 10 | 82 | 4.8 | 8.0 | 0.00 | 0.00 | 0.00 | 51 | 1018.7 |
| 20260502130728 | 10 | 353 | 0.0 | 3.2 | 0.00 | 0.00 | 0.00 | 63 | 1018.5 |
| 20260502130226 | 11 | 14 | 1.6 | 3.2 | 0.00 | 0.00 | 0.00 | 61 | 1018.5 |
| 20260502123711 | 9 | 180 | 0.0 | 0.0 | 0.00 | 0.00 | 0.00 | 67 | 1018.4 |
| 20260502123208 | 8 | 180 | 0.0 | 0.0 | 0.00 | 0.00 | 0.00 | 70 | 1018.4 |
| 20260502122704 | 6 | 180 | 0.0 | 3.2 | 0.00 | 0.00 | 0.00 | 71 | 1018.1 |
| 20260502122201 | 8 | 188 | 0.0 | 0.0 | 0.00 | 0.00 | 0.00 | 67 | 1018.3 |
| 20260502121659 | 8 | 74 | 0.0 | 3.2 | 0.00 | 0.00 | 0.00 | 68 | 1018.3 |
| 20260502121157 | 8 | 106 | 0.0 | 1.6 | 0.00 | 0.00 | 0.00 | 73 | 1018.1 |
| 20260502120653 | 7 | 83 | 1.6 | 3.2 | 0.00 | 0.00 | 0.00 | 75 | 1018.3 |
| 20260502120150 | 6 | 82 | 0.0 | 1.6 | 0.00 | 0.00 | 0.00 | 84 | 1018.3 |
| 20260502115648 | 5 | 94 | 3.2 | 3.2 | 0.00 | 0.00 | 0.00 | 92 | 1018.3 |
| 20260502115144 | 6 | 96 | 1.6 | 3.2 | 0.00 | 0.00 | 0.00 | 98 | 1017.9 |
| 20260502114640 | 4 | 173 | 0.0 | 0.0 | 0.00 | 0.00 | 0.00 | 98 | 1018.0 |
| 20260502114137 | 2 | 180 | 1.6 | 1.6 | 0.00 | 0.00 | 0.00 | 97 | 1018.0 |
| 20260502113635 | 1 | 74 | 0.0 | 0.0 | 0.00 | 0.00 | 0.00 | 97 | 1018.0 |
| 20260502113133 | 1 | 74 | 0.0 | 0.0 | 0.00 | 0.00 | 0.00 | 97 | 1017.8 |
| 20260502112631 | 0 | 90 | 0.0 | 0.0 | 0.00 | 0.00 | 0.00 | 96 | 1017.8 |
| 20260502112127 | 0 | 90 | 0.0 | 0.0 | 0.00 | 0.00 | 0.00 | 96 | 1017.7 |
| 20260502111625 | 0 | 97 | 0.0 | 0.0 | 0.00 | 0.00 | 0.00 | 96 | 1017.6 |
| 20260502111122 | 0 | 97 | 0.0 | 1.6 | 0.00 | 0.00 | 0.00 | 96 | 1018.0 |
| 20260502110620 | 0 | 97 | 0.0 | 0.0 | 0.00 | 0.00 | 0.00 | 96 | 1017.7 |
| 20260502110117 | 0 | 97 | 0.0 | 0.0 | 0.00 | 0.00 | 0.00 | 95 | 1018.0 |
| 20260502105615 | 0 | 97 | 0.0 | 1.6 | 0.00 | 0.00 | 0.00 | 96 | 1017.8 |
| 20260502105111 | 0 | 165 | 0.0 | 0.0 | 0.00 | 0.00 | 0.00 | 96 | 1017.7 |
| 20260502104609 | 0 | 165 | 0.0 | 0.0 | 0.00 | 0.00 | 0.00 | 96 | 1017.7 |
| 20260502104106 | 0 | 98 | 0.0 | 1.6 | 0.00 | 0.00 | 0.00 | 95 | 1017.8 |
| 20260502103604 | 0 | 157 | 0.0 | 1.6 | 0.00 | 0.00 | 0.00 | 95 | 1017.8 |
| 20260502103102 | 0 | 82 | 0.0 | 1.6 | 0.00 | 0.00 | 0.00 | 95 | 1017.8 |
| 20260502102558 | 0 | 82 | 0.0 | 1.6 | 0.00 | 0.00 | 0.00 | 95 | 1017.8 |
| 20260502102055 | 0 | 98 | 0.0 | 1.6 | 0.00 | 0.00 | 0.00 | 95 | 1017.6 |
| 20260502101553 | 0 | 105 | 0.0 | 1.6 | 0.00 | 0.00 | 0.00 | 94 | 1017.4 |
| 20260502101051 | 0 | 90 | 0.0 | 0.0 | 0.00 | 0.00 | 0.00 | 94 | 1017.6 |
| 20260502100549 | 0 | 90 | 0.0 | 0.0 | 0.00 | 0.00 | 0.00 | 94 | 1017.6 |
| 20260502091524 | 0 | 90 | 0.0 | 0.0 | 0.00 | 0.00 | 0.00 | 92 | 1017.6 |
| 20260502091021 | 0 | 173 | 0.0 | 0.0 | 0.00 | 0.00 | 0.00 | 92 | 1017.4 |
| 20260502090518 | 0 | 173 | 0.0 | 0.0 | 0.00 | 0.00 | 0.00 | 92 | 1017.5 |
| 20260502071412 | 3 | 105 | 0.0 | 0.0 | 0.00 | 0.00 | 0.00 | 82 | 1017.5 |
| 20260502070910 | 3 | 105 | 0.0 | 0.0 | 0.00 | 0.00 | 0.00 | 82 | 1017.6 |
| 20260502070408 | 3 | 105 | 0.0 | 0.0 | 0.00 | 0.00 | 0.00 | 81 | 1017.6 |
| 20260502065907 | 3 | 105 | 0.0 | 0.0 | 0.00 | 0.00 | 0.00 | 80 | 1017.8 |
| 20260502065405 | 3 | 114 | 0.0 | 1.6 | 0.00 | 0.00 | 0.00 | 80 | 1017.6 |
| 20260502064903 | 3 | 106 | 0.0 | 0.0 | 0.00 | 0.00 | 0.00 | 80 | 1017.6 |
| 20260502064400 | 3 | 71 | 0.0 | 3.2 | 0.00 | 0.00 | 0.00 | 80 | 1017.6 |
| 20260502063856 | 3 | 180 | 0.0 | 3.2 | 0.00 | 0.00 | 0.00 | 79 | 1017.6 |
| 20260502063355 | 3 | 90 | 0.0 | 0.0 | 0.00 | 0.00 | 0.00 | 79 | 1017.9 |
| 20260502062852 | 3 | 74 | 0.0 | 0.0 | 0.00 | 0.00 | 0.00 | 79 | 1018.1 |
| 20260502062349 | 3 | 74 | 0.0 | 3.2 | 0.00 | 0.00 | 0.00 | 79 | 1018.1 |
| 20260502061848 | 3 | 106 | 0.0 | 1.6 | 0.00 | 0.00 | 0.00 | 78 | 1017.9 |
| 20260502061345 | 3 | 79 | 0.0 | 3.2 | 0.00 | 0.00 | 0.00 | 78 | 1017.8 |
| 20260502060841 | 3 | 79 | 3.2 | 3.2 | 0.00 | 0.00 | 0.00 | 79 | 1017.8 |
| 20260502060336 | 3 | 77 | 1.6 | 3.2 | 0.00 | 0.00 | 0.00 | 79 | 1018.2 |
| 20260502055834 | 3 | 69 | 0.0 | 1.6 | 0.00 | 0.00 | 0.00 | 79 | 1018.0 |
| 20260502055332 | 3 | 95 | 3.2 | 3.2 | 0.00 | 0.00 | 0.00 | 78 | 1018.1 |
| 20260502054831 | 3 | 90 | 0.0 | 1.6 | 0.00 | 0.00 | 0.00 | 78 | 1018.0 |
| 20260502054328 | 3 | 90 | 0.0 | 1.6 | 0.00 | 0.00 | 0.00 | 77 | 1018.1 |
| 20260502053826 | 3 | 83 | 0.0 | 3.2 | 0.00 | 0.00 | 0.00 | 77 | 1018.3 |
| 20260502053322 | 3 | 90 | 0.0 | 1.6 | 0.00 | 0.00 | 0.00 | 76 | 1018.2 |
| 20260502052820 | 4 | 111 | 1.6 | 3.2 | 0.00 | 0.00 | 0.00 | 75 | 1018.1 |
| 20260502052318 | 4 | 83 | 1.6 | 4.8 | 0.00 | 0.00 | 0.00 | 74 | 1017.9 |
| 20260502051816 | 4 | 79 | 3.2 | 4.8 | 0.00 | 0.00 | 0.00 | 74 | 1017.8 |
| 20260502051315 | 4 | 102 | 1.6 | 4.8 | 0.00 | 0.00 | 0.00 | 73 | 1018.1 |
| 20260502050810 | 4 | 90 | 0.0 | 4.8 | 0.00 | 0.00 | 0.00 | 73 | 1018.0 |
| 20260502050307 | 4 | 103 | 1.6 | 6.4 | 0.00 | 0.00 | 0.00 | 73 | 1018.1 |
| 20260502045804 | 4 | 105 | 3.2 | 6.4 | 0.00 | 0.03 | 0.03 | 73 | 1018.0 |
| 20260502045300 | 4 | 90 | 4.8 | 9.7 | 0.00 | 0.03 | 0.03 | 73 | 1018.0 |
| 20260502044758 | 4 | 106 | 6.4 | 8.0 | 0.00 | 0.03 | 0.03 | 73 | 1018.0 |
| 20260502044254 | 4 | 86 | 8.0 | 8.0 | 0.00 | 0.03 | 0.03 | 73 | 1018.3 |
| 20260502043751 | 4 | 83 | 4.8 | 4.8 | 0.00 | 0.03 | 0.03 | 73 | 1018.1 |
| 20260502043248 | 4 | 72 | 4.8 | 9.7 | 0.00 | 0.03 | 0.03 | 73 | 1017.9 |
| 20260502042748 | 4 | 77 | 4.8 | 6.4 | 0.00 | 0.03 | 0.03 | 73 | 1017.8 |
| 20260502042245 | 4 | 83 | 4.8 | 8.0 | 0.00 | 0.03 | 0.03 | 73 | 1018.1 |
| 20260502041743 | 4 | 111 | 0.0 | 8.0 | 0.00 | 0.03 | 0.03 | 74 | 1017.7 |
| 20260502041240 | 4 | 75 | 4.8 | 9.7 | 0.00 | 0.03 | 0.03 | 74 | 1017.9 |
| 20260502040737 | 4 | 82 | 3.2 | 6.4 | 0.00 | 0.03 | 0.03 | 74 | 1018.0 |
| 20260502040234 | 4 | 81 | 8.0 | 8.0 | 0.00 | 0.03 | 0.03 | 74 | 1017.8 |
| 20260502035730 | 4 | 98 | 3.2 | 9.7 | 0.00 | 0.03 | 0.03 | 74 | 1017.9 |
| 20260502035227 | 4 | 87 | 4.8 | 9.7 | 0.00 | 0.03 | 0.03 | 74 | 1017.9 |
| 20260502034724 | 4 | 86 | 0.0 | 8.0 | 0.00 | 0.03 | 0.03 | 73 | 1017.8 |
| 20260502034222 | 4 | 93 | 0.0 | 9.7 | 0.00 | 0.03 | 0.03 | 73 | 1017.9 |
| 20260502033720 | 4 | 84 | 4.8 | 8.0 | 0.00 | 0.03 | 0.03 | 73 | 1017.7 |
| 20260502033218 | 4 | 92 | 9.7 | 11.3 | 0.00 | 0.03 | 0.03 | 73 | 1017.8 |
| 20260502032714 | 4 | 106 | 0.0 | 8.0 | 0.00 | 0.03 | 0.03 | 74 | 1017.5 |
| 20260502032210 | 4 | 103 | 4.8 | 6.4 | 0.00 | 0.03 | 0.03 | 75 | 1017.8 |
| 20260502031708 | 4 | 74 | 3.2 | 6.4 | 0.00 | 0.03 | 0.03 | 75 | 1017.5 |
| 20260502031206 | 4 | 87 | 4.8 | 9.7 | 0.00 | 0.03 | 0.03 | 74 | 1017.7 |
| 20260502030704 | 4 | 93 | 4.8 | 6.4 | 0.00 | 0.03 | 0.03 | 75 | 1017.9 |
| 20260502030202 | 4 | 105 | 3.2 | 11.3 | 0.00 | 0.03 | 0.03 | 75 | 1017.4 |
| 20260502025659 | 4 | 90 | 4.8 | 8.0 | 0.00 | 0.03 | 0.03 | 75 | 1017.5 |
| 20260502025156 | 4 | 86 | 4.8 | 8.0 | 0.00 | 0.03 | 0.03 | 75 | 1017.5 |
| 20260502024654 | 5 | 76 | 6.4 | 14.5 | 0.00 | 0.03 | 0.03 | 74 | 1017.1 |
| 20260502024153 | 5 | 90 | 4.8 | 12.9 | 0.00 | 0.03 | 0.03 | 74 | 1017.3 |
| 20260502023650 | 5 | 100 | 6.4 | 9.7 | 0.00 | 0.03 | 0.03 | 74 | 1017.2 |
| 20260502023147 | 5 | 57 | 9.7 | 22.5 | 0.00 | 0.03 | 0.03 | 74 | 1017.1 |
| 20260502022644 | 5 | 88 | 8.0 | 17.7 | 0.00 | 0.03 | 0.03 | 74 | 1016.9 |
| 20260502022141 | 5 | 103 | 6.4 | 9.7 | 0.00 | 0.03 | 0.03 | 74 | 1017.1 |
| 20260502021638 | 5 | 87 | 4.8 | 8.0 | 0.00 | 0.03 | 0.03 | 75 | 1017.0 |
| 20260502021135 | 5 | 103 | 4.8 | 14.5 | 0.00 | 0.03 | 0.03 | 75 | 1016.9 |
| 20260502020633 | 5 | 83 | 4.8 | 4.8 | 0.00 | 0.03 | 0.03 | 76 | 1016.6 |
| 20260502020129 | 5 | 94 | 3.2 | 8.0 | 0.00 | 0.03 | 0.03 | 75 | 1016.7 |
| 20260502015627 | 5 | 95 | 6.4 | 11.3 | 0.00 | 0.03 | 0.03 | 74 | 1016.5 |
| 20260502015123 | 6 | 71 | 3.2 | 14.5 | 0.00 | 0.03 | 0.03 | 74 | 1016.5 |
| 20260502014621 | 6 | 90 | 6.4 | 11.3 | 0.00 | 0.03 | 0.03 | 75 | 1016.4 |
| 20260502014118 | 6 | 100 | 0.0 | 9.7 | 0.00 | 0.03 | 0.03 | 75 | 1016.4 |
| 20260502013614 | 6 | 78 | 8.0 | 14.5 | 0.00 | 0.03 | 0.03 | 75 | 1016.2 |
| 20260502013109 | 6 | 97 | 0.0 | 8.0 | 0.00 | 0.03 | 0.03 | 75 | 1016.2 |
| 20260502012607 | 6 | 112 | 3.2 | 11.3 | 0.00 | 0.03 | 0.03 | 74 | 1016.0 |
| 20260502012105 | 6 | 90 | 3.2 | 9.7 | 0.00 | 0.03 | 0.03 | 75 | 1016.1 |
| 20260502011601 | 6 | 101 | 4.8 | 9.7 | 0.00 | 0.03 | 0.03 | 75 | 1016.1 |
| 20260502011057 | 6 | 90 | 1.6 | 9.7 | 0.00 | 0.03 | 0.03 | 75 | 1015.7 |
| 20260502010555 | 7 | 105 | 4.8 | 11.3 | 0.00 | 0.03 | 0.03 | 74 | 1015.7 |
| 20260502010051 | 7 | 100 | 0.0 | 11.3 | 0.00 | 0.03 | 0.03 | 73 | 1015.7 |
| 20260502005549 | 7 | 90 | 4.8 | 6.4 | 0.00 | 0.03 | 0.03 | 73 | 1015.4 |
| 20260502005047 | 7 | 94 | 0.0 | 9.7 | 0.00 | 0.03 | 0.03 | 72 | 1015.6 |
| 20260502004542 | 7 | 90 | 1.6 | 9.7 | 0.00 | 0.03 | 0.03 | 71 | 1015.4 |
| 20260502004039 | 7 | 90 | 6.4 | 9.7 | 0.00 | 0.03 | 0.03 | 70 | 1015.3 |
| 20260502003537 | 8 | 106 | 3.2 | 11.3 | 0.00 | 0.03 | 0.03 | 69 | 1015.3 |
| 20260502003033 | 8 | 101 | 4.8 | 8.0 | 0.00 | 0.03 | 0.03 | 67 | 1015.2 |
| 20260502002530 | 8 | 92 | 8.0 | 9.7 | 0.00 | 0.03 | 0.03 | 66 | 1015.6 |
| 20260502002027 | 9 | 81 | 8.0 | 9.7 | 0.00 | 0.03 | 0.03 | 65 | 1015.1 |
| 20260502001525 | 10 | 90 | 8.0 | 8.0 | 0.00 | 0.03 | 0.03 | 64 | 1015.0 |
| 20260502001022 | 10 | 103 | 3.2 | 6.4 | 0.00 | 0.03 | 0.03 | 63 | 1015.1 |
| 20260502000520 | 10 | 110 | 3.2 | 6.4 | 0.00 | 0.03 | 0.03 | 63 | 1015.0 |
| 20260502000017 | 10 | 102 | 0.0 | 6.4 | 0.00 | 0.03 | 0.03 | 63 | 1015.1 |
| 20260501235513 | 10 | 77 | 3.2 | 6.4 | 0.00 | 0.03 | 0.03 | 62 | 1015.0 |
| 20260501235008 | 11 | 101 | 0.0 | 9.7 | 0.00 | 0.03 | 0.03 | 61 | 1015.0 |
| 20260501234504 | 12 | 90 | 0.0 | 4.8 | 0.00 | 0.03 | 0.03 | 55 | 1014.8 |